STARLINK-30174 (57609 NORAD) Tracking and Keplerian Element Data

This shows tracking and keplerian element data for the satellite.

Feedback or suggestion? Click here.




ElementValue
Catalog57609
NameSTARLINK-30174
Epoch Orbit2476
Epoch Day13.17014592
Epoch Year2024
RAAN35.2724
Inclination43.0035
Eccentricity0.0001005
Argument of Perigee244.4709
Mean Anonmoly115.603
Mean Motion15.02519246
Decay Rate0.00013236
L11 57609U 23119H 24013.17014592 .00013236 00000+0 99351-3 0 9996
L22 57609 43.0035 35.2724 0001005 244.4709 115.6030 15.02519246 24763



Live tracking and technical data element details for STARLINK-30174 (NORAD 57609). STARLINK-30174 can be tracked NOW for your location showing map with azimuth and elevation plus other details from your city location.







IsCatalogInMostPopularTable: catalog: 57609, numindb: 22
Update: records affected: 1



GetName: 57609 STARLINK-30174

Hit Count: updated at: Thu, 22 Feb 2024 00:25:30 GMT